RYR1051 EGPH-LFRS

Flight info

Callsign RYR1051
Flight time 1h 25m
Altitude 37000
Route GOSAM P600 FENIK L612 NAVSO DCT AKOMU DCT VAMEB UL612 HON UN859 CPT Y321 PEPIS Q41 SAM M195 MARUK N621 LELNA DCT DOMOK UT260 UPALO UN862 GODAN
Aircraft B38M/M-SDE1FGHILORVWXY/HB1

Departure

Time 2026-05-07 05:54
Airport Edinburgh Airport (EGPH)

Arrival

Time 2026-05-07 07:20
Airport Nantes Atlantique Airport (LFRS)
Time Latitude Longitude Altitude Speed Heading
2026-05-07 05:41 55.94616 -3.36632 144 ft 0 kts 90°
2026-05-07 05:47 55.94616 -3.36652 144 ft 2 kts 90°
2026-05-07 05:47 55.94616 -3.36685 144 ft 3 kts 90°
2026-05-07 05:48 55.94616 -3.36721 144 ft 3 kts 90°
2026-05-07 05:48 55.94616 -3.36758 144 ft 3 kts 90°
2026-05-07 05:48 55.94617 -3.36776 144 ft 0 kts 90°
2026-05-07 05:50 55.94617 -3.36772 144 ft 1 kts 90°
2026-05-07 05:50 55.94625 -3.36740 144 ft 3 kts 41°
2026-05-07 05:50 55.94655 -3.36736 144 ft 6 kts 359°
2026-05-07 05:50 55.94712 -3.36737 144 ft 11 kts 359°
2026-05-07 05:51 55.94801 -3.36738 144 ft 14 kts 359°
2026-05-07 05:51 55.94877 -3.36777 144 ft 13 kts 328°
2026-05-07 05:51 55.94949 -3.36820 144 ft 9 kts 34°
2026-05-07 05:51 55.94987 -3.36721 144 ft 12 kts 59°
2026-05-07 05:52 55.95036 -3.36577 144 ft 15 kts 59°
2026-05-07 05:52 55.95098 -3.36391 144 ft 19 kts 59°
2026-05-07 05:52 55.95154 -3.36309 144 ft 11 kts 343°
2026-05-07 05:52 55.95233 -3.36389 144 ft 15 kts 329°
2026-05-07 05:53 55.95268 -3.36458 144 ft 3 kts 250°
2026-05-07 05:53 55.95264 -3.36471 144 ft 0 kts 239°
2026-05-07 05:53 55.95236 -3.36555 144 ft 33 kts 239°
2026-05-07 05:53 55.94984 -3.37305 144 ft 106 kts 239°
2026-05-07 05:54 55.94498 -3.38744 210 ft 156 kts 239°
2026-05-07 05:54 55.93937 -3.40409 925 ft 158 kts 239°
2026-05-07 05:54 55.93364 -3.42110 1621 ft 165 kts 239°
2026-05-07 05:54 55.92769 -3.43893 2341 ft 170 kts 236°
2026-05-07 05:55 55.92177 -3.45784 3041 ft 177 kts 237°
2026-05-07 05:55 55.91662 -3.47813 3725 ft 185 kts 245°
2026-05-07 05:55 55.91270 -3.50037 4427 ft 189 kts 250°
2026-05-07 05:55 55.90919 -3.52300 5099 ft 193 kts 251°
2026-05-07 05:56 55.90566 -3.54681 5776 ft 200 kts 252°
2026-05-07 05:56 55.90207 -3.57104 6454 ft 209 kts 252°
2026-05-07 05:56 55.89825 -3.59668 7141 ft 219 kts 253°
2026-05-07 05:56 55.89479 -3.62390 7836 ft 229 kts 255°
2026-05-07 05:57 55.88906 -3.65045 8498 ft 236 kts 235°
2026-05-07 05:57 55.87667 -3.66981 9287 ft 243 kts 208°
2026-05-07 05:57 55.86044 -3.68003 10079 ft 254 kts 196°
2026-05-07 05:57 55.84277 -3.68633 10772 ft 272 kts 192°
2026-05-07 05:58 55.82323 -3.69150 11474 ft 293 kts 190°
2026-05-07 05:58 55.80229 -3.69631 12167 ft 312 kts 189°
2026-05-07 05:58 55.78025 -3.70102 12850 ft 330 kts 189°
2026-05-07 05:58 55.75684 -3.70583 13536 ft 345 kts 189°
2026-05-07 05:59 55.73238 -3.71076 14222 ft 359 kts 189°
2026-05-07 05:59 55.70726 -3.71588 14901 ft 372 kts 189°
2026-05-07 05:59 55.68104 -3.72124 15645 ft 382 kts 189°
2026-05-07 05:59 55.65438 -3.72687 16449 ft 388 kts 190°
2026-05-07 06:00 55.62772 -3.73259 17244 ft 392 kts 190°
2026-05-07 06:00 55.60045 -3.73841 18049 ft 397 kts 190°
2026-05-07 06:00 55.57262 -3.74431 18852 ft 403 kts 190°
2026-05-07 06:00 55.54450 -3.75020 19504 ft 411 kts 190°
2026-05-07 06:01 55.51607 -3.75613 20106 ft 419 kts 190°
2026-05-07 06:01 55.48691 -3.76219 20710 ft 425 kts 190°
2026-05-07 06:01 55.45746 -3.76826 21311 ft 430 kts 190°
2026-05-07 06:01 55.42754 -3.77437 21915 ft 433 kts 190°
2026-05-07 06:02 55.39744 -3.78046 22517 ft 436 kts 190°
2026-05-07 06:02 55.36711 -3.78654 23121 ft 438 kts 190°
2026-05-07 06:02 55.33715 -3.79249 23715 ft 439 kts 190°
2026-05-07 06:02 55.30657 -3.79852 24319 ft 440 kts 190°
2026-05-07 06:03 55.27594 -3.80361 24924 ft 442 kts 185°
2026-05-07 06:03 55.24544 -3.79837 25499 ft 451 kts 172°
2026-05-07 06:03 55.21463 -3.78392 26037 ft 461 kts 165°
2026-05-07 06:03 55.18421 -3.76447 26560 ft 469 kts 161°
2026-05-07 06:04 55.15415 -3.74247 27071 ft 475 kts 159°
2026-05-07 06:04 55.12378 -3.71880 27582 ft 479 kts 158°
2026-05-07 06:04 55.09338 -3.69440 28086 ft 481 kts 158°
2026-05-07 06:04 55.07322 -3.67800 28419 ft 482 kts 157°
2026-05-07 06:05 55.03282 -3.64450 29086 ft 483 kts 156°
2026-05-07 06:05 55.00249 -3.61894 29588 ft 482 kts 156°
2026-05-07 06:05 54.98244 -3.60195 29921 ft 482 kts 156°
2026-05-07 06:05 54.94246 -3.56805 30585 ft 480 kts 156°
2026-05-07 06:06 54.92247 -3.55113 30918 ft 479 kts 156°
2026-05-07 06:06 54.89235 -3.52576 31420 ft 478 kts 156°
2026-05-07 06:06 54.86271 -3.50096 31916 ft 476 kts 156°
2026-05-07 06:06 54.83262 -3.47597 32419 ft 475 kts 156°
2026-05-07 06:07 54.80303 -3.45161 32915 ft 473 kts 156°
2026-05-07 06:07 54.77339 -3.42738 33413 ft 471 kts 156°
2026-05-07 06:07 54.74376 -3.40300 33914 ft 469 kts 155°
2026-05-07 06:07 54.71422 -3.37859 34416 ft 467 kts 155°
2026-05-07 06:08 54.68519 -3.35458 34912 ft 464 kts 155°
2026-05-07 06:08 54.65566 -3.33181 35417 ft 460 kts 160°
2026-05-07 06:08 54.62564 -3.31539 35901 ft 457 kts 166°
2026-05-07 06:08 54.59475 -3.30251 36242 ft 457 kts 169°
2026-05-07 06:09 54.56331 -3.29159 36523 ft 459 kts 171°
2026-05-07 06:09 54.53203 -3.28188 36765 ft 462 kts 171°
2026-05-07 06:09 54.50021 -3.27260 36913 ft 466 kts 172°
2026-05-07 06:10 54.43541 -3.25459 37013 ft 474 kts 172°
2026-05-07 06:10 54.37048 -3.23670 37011 ft 475 kts 172°
2026-05-07 06:11 54.30552 -3.21789 37011 ft 474 kts 172°
2026-05-07 06:11 54.24048 -3.19880 37014 ft 475 kts 171°
2026-05-07 06:12 54.17522 -3.17964 37017 ft 475 kts 171°
2026-05-07 06:12 54.10999 -3.16060 37019 ft 476 kts 171°
2026-05-07 06:13 54.04482 -3.14169 37022 ft 476 kts 172°
2026-05-07 06:13 53.97928 -3.12279 37025 ft 476 kts 171°
2026-05-07 06:14 53.91402 -3.10373 37026 ft 476 kts 171°
2026-05-07 06:14 53.84926 -3.08451 37027 ft 475 kts 171°
2026-05-07 06:15 53.78404 -3.06512 37028 ft 475 kts 171°
2026-05-07 06:15 53.71878 -3.04575 37029 ft 475 kts 171°
2026-05-07 06:16 53.65391 -3.02660 37040 ft 475 kts 171°
2026-05-07 06:16 53.58866 -3.00741 37054 ft 475 kts 171°
2026-05-07 06:17 53.52381 -2.98855 37057 ft 475 kts 171°
2026-05-07 06:17 53.45847 -2.97068 37057 ft 475 kts 171°
2026-05-07 06:18 53.39352 -2.95264 37054 ft 474 kts 171°
2026-05-07 06:18 53.32831 -2.93414 37054 ft 474 kts 171°
2026-05-07 06:19 53.26306 -2.91653 37053 ft 473 kts 171°
2026-05-07 06:19 53.19833 -2.89898 37039 ft 473 kts 171°
2026-05-07 06:20 53.13325 -2.88097 37026 ft 473 kts 171°
2026-05-07 06:20 53.06860 -2.86389 37028 ft 473 kts 171°
2026-05-07 06:21 53.00324 -2.84645 37033 ft 472 kts 171°
2026-05-07 06:21 52.93872 -2.82967 37039 ft 472 kts 172°
2026-05-07 06:22 52.87401 -2.81253 37046 ft 472 kts 171°
2026-05-07 06:22 52.77645 -2.78622 37051 ft 471 kts 171°
2026-05-07 06:23 52.71178 -2.76969 37050 ft 471 kts 171°
2026-05-07 06:23 52.64737 -2.75285 37049 ft 470 kts 172°
2026-05-07 06:24 52.58255 -2.73667 37048 ft 470 kts 172°
2026-05-07 06:24 52.51792 -2.72067 37046 ft 470 kts 171°
2026-05-07 06:25 52.45336 -2.70428 37044 ft 470 kts 172°
2026-05-07 06:25 52.38878 -2.68854 37044 ft 469 kts 172°
2026-05-07 06:26 52.32431 -2.67306 37043 ft 469 kts 172°
2026-05-07 06:26 52.25994 -2.65770 37047 ft 469 kts 172°
2026-05-07 06:27 52.19541 -2.64240 37046 ft 468 kts 172°
2026-05-07 06:27 52.13095 -2.62716 37043 ft 468 kts 172°
2026-05-07 06:28 52.06641 -2.61194 37040 ft 468 kts 172°
2026-05-07 06:28 52.00215 -2.59685 37037 ft 468 kts 172°
2026-05-07 06:29 51.93779 -2.58168 37034 ft 467 kts 172°
2026-05-07 06:29 51.87318 -2.56643 37034 ft 467 kts 172°
2026-05-07 06:30 51.80895 -2.55127 37036 ft 467 kts 172°
2026-05-07 06:30 51.74487 -2.53622 37038 ft 466 kts 172°
2026-05-07 06:31 51.68071 -2.52127 37041 ft 466 kts 172°
2026-05-07 06:31 51.61622 -2.50630 37041 ft 466 kts 172°
2026-05-07 06:32 51.55218 -2.49146 37044 ft 466 kts 172°
2026-05-07 06:32 51.48816 -2.47665 37047 ft 466 kts 172°
2026-05-07 06:33 51.42393 -2.46182 37049 ft 466 kts 172°
2026-05-07 06:33 51.35995 -2.44704 37049 ft 465 kts 172°
2026-05-07 06:34 51.29593 -2.43226 37045 ft 465 kts 172°
2026-05-07 06:34 51.23157 -2.41739 37042 ft 465 kts 172°
2026-05-07 06:35 51.16779 -2.40264 37038 ft 465 kts 172°
2026-05-07 06:35 51.10396 -2.38788 37035 ft 465 kts 172°
2026-05-07 06:36 51.03980 -2.37302 37032 ft 465 kts 172°
2026-05-07 06:36 50.97601 -2.35823 37031 ft 464 kts 172°
2026-05-07 06:37 50.91210 -2.34327 37032 ft 464 kts 172°
2026-05-07 06:37 50.84819 -2.32821 37035 ft 464 kts 172°
2026-05-07 06:38 50.78429 -2.31297 37038 ft 464 kts 172°
2026-05-07 06:38 50.72063 -2.29690 37040 ft 464 kts 172°
2026-05-07 06:39 50.65680 -2.28031 37040 ft 464 kts 172°
2026-05-07 06:39 50.59336 -2.26369 37041 ft 463 kts 171°
2026-05-07 06:40 50.52961 -2.24691 37042 ft 463 kts 172°
2026-05-07 06:40 50.46632 -2.23015 37042 ft 463 kts 172°
2026-05-07 06:41 50.40269 -2.21330 37042 ft 463 kts 172°
2026-05-07 06:41 50.33958 -2.19660 37043 ft 463 kts 172°
2026-05-07 06:42 50.27576 -2.17975 37046 ft 462 kts 172°
2026-05-07 06:42 50.21243 -2.16306 37047 ft 462 kts 172°
2026-05-07 06:43 50.14934 -2.14649 37048 ft 462 kts 172°
2026-05-07 06:43 50.08559 -2.13058 37049 ft 462 kts 172°
2026-05-07 06:44 50.02224 -2.11678 37051 ft 461 kts 175°
2026-05-07 06:44 49.95793 -2.10993 37052 ft 461 kts 179°
2026-05-07 06:45 49.89410 -2.10676 37051 ft 460 kts 180°
2026-05-07 06:45 49.83025 -2.10504 37051 ft 460 kts 180°
2026-05-07 06:46 49.76601 -2.10152 37053 ft 461 kts 174°
2026-05-07 06:46 49.70306 -2.08354 37061 ft 462 kts 168°
2026-05-07 06:47 49.64066 -2.05935 37055 ft 463 kts 166°
2026-05-07 06:47 49.57824 -2.03335 37052 ft 463 kts 166°
2026-05-07 06:48 49.51638 -2.00711 37052 ft 463 kts 166°
2026-05-07 06:48 49.45407 -1.98059 37052 ft 463 kts 166°
2026-05-07 06:49 49.39230 -1.95431 37052 ft 463 kts 166°
2026-05-07 06:49 49.33040 -1.92802 37052 ft 463 kts 166°
2026-05-07 06:50 49.26810 -1.90162 37052 ft 462 kts 166°
2026-05-07 06:50 49.20617 -1.87544 37052 ft 462 kts 166°
2026-05-07 06:51 49.14399 -1.84920 37052 ft 462 kts 166°
2026-05-07 06:51 49.08219 -1.82319 37052 ft 462 kts 166°
2026-05-07 06:52 49.02034 -1.79719 37052 ft 462 kts 166°
2026-05-07 06:52 48.95794 -1.77220 37053 ft 461 kts 170°
2026-05-07 06:53 48.89457 -1.76048 37057 ft 460 kts 177°
2026-05-07 06:53 48.83086 -1.75604 37043 ft 459 kts 180°
2026-05-07 06:54 48.76684 -1.75414 36597 ft 464 kts 180°
2026-05-07 06:54 48.73442 -1.75351 36110 ft 465 kts 181°
2026-05-07 06:54 48.70205 -1.75297 35612 ft 464 kts 181°
2026-05-07 06:55 48.67872 -1.75262 35251 ft 463 kts 181°
2026-05-07 06:55 48.63781 -1.75201 34615 ft 462 kts 181°
2026-05-07 06:55 48.60568 -1.75155 34115 ft 461 kts 181°
2026-05-07 06:55 48.57346 -1.75113 33613 ft 461 kts 181°
2026-05-07 06:56 48.55220 -1.75088 33281 ft 461 kts 181°
2026-05-07 06:56 48.50956 -1.75039 32616 ft 461 kts 181°
2026-05-07 06:56 48.48824 -1.75016 32284 ft 461 kts 181°
2026-05-07 06:56 48.45599 -1.74980 31782 ft 462 kts 181°
2026-05-07 06:57 48.42369 -1.74918 31280 ft 462 kts 180°
2026-05-07 06:57 48.39153 -1.74837 30778 ft 461 kts 180°
2026-05-07 06:57 48.35991 -1.74749 30284 ft 459 kts 180°
2026-05-07 06:57 48.32804 -1.74655 29783 ft 457 kts 180°
2026-05-07 06:58 48.29624 -1.74567 29280 ft 454 kts 180°
2026-05-07 06:58 48.26460 -1.74511 28777 ft 450 kts 180°
2026-05-07 06:58 48.23402 -1.74473 28280 ft 434 kts 181°
2026-05-07 06:58 48.20447 -1.74438 27775 ft 414 kts 181°
2026-05-07 06:59 48.17607 -1.74402 27269 ft 400 kts 181°
2026-05-07 06:59 48.14884 -1.74364 26769 ft 389 kts 181°
2026-05-07 06:59 48.12196 -1.74334 26265 ft 382 kts 182°
2026-05-07 06:59 48.09573 -1.74727 25768 ft 375 kts 191°
2026-05-07 07:00 48.07061 -1.75525 25278 ft 370 kts 196°
2026-05-07 07:00 48.04586 -1.76533 24781 ft 365 kts 198°
2026-05-07 07:00 48.02155 -1.77625 24280 ft 362 kts 199°
2026-05-07 07:00 47.99779 -1.78738 23783 ft 358 kts 200°
2026-05-07 07:01 47.97435 -1.79856 23287 ft 355 kts 200°
2026-05-07 07:01 47.95078 -1.80987 22783 ft 352 kts 200°
2026-05-07 07:01 47.92746 -1.82113 22280 ft 349 kts 200°
2026-05-07 07:01 47.90471 -1.83216 21785 ft 346 kts 200°
2026-05-07 07:02 47.88195 -1.84320 21284 ft 343 kts 200°
2026-05-07 07:02 47.85933 -1.85417 20783 ft 340 kts 200°
2026-05-07 07:02 47.83691 -1.86504 20281 ft 337 kts 200°
2026-05-07 07:02 47.81468 -1.87583 19779 ft 334 kts 200°
2026-05-07 07:03 47.79288 -1.88646 19282 ft 331 kts 200°
2026-05-07 07:03 47.77109 -1.89709 18781 ft 328 kts 200°
2026-05-07 07:03 47.74949 -1.90765 18280 ft 325 kts 200°
2026-05-07 07:03 47.72804 -1.91813 17777 ft 322 kts 200°
2026-05-07 07:04 47.70704 -1.92840 17282 ft 319 kts 200°
2026-05-07 07:04 47.68595 -1.93863 16779 ft 317 kts 198°
2026-05-07 07:04 47.66418 -1.94271 16273 ft 317 kts 179°
2026-05-07 07:04 47.64260 -1.93734 15792 ft 317 kts 167°
2026-05-07 07:05 47.62148 -1.92759 15297 ft 316 kts 162°
2026-05-07 07:05 47.60096 -1.91597 14798 ft 314 kts 160°
2026-05-07 07:05 47.58101 -1.90375 14302 ft 312 kts 159°
2026-05-07 07:05 47.56113 -1.89121 13801 ft 309 kts 158°
2026-05-07 07:06 47.54143 -1.87869 13300 ft 306 kts 158°
2026-05-07 07:06 47.52188 -1.86622 12798 ft 304 kts 158°
2026-05-07 07:06 47.50275 -1.85391 12302 ft 301 kts 158°
2026-05-07 07:06 47.48360 -1.84137 11800 ft 299 kts 157°
2026-05-07 07:07 47.46463 -1.82883 11298 ft 296 kts 157°
2026-05-07 07:07 47.44585 -1.81638 10796 ft 294 kts 157°
2026-05-07 07:07 47.42745 -1.80424 10300 ft 291 kts 157°
2026-05-07 07:07 47.40897 -1.79202 9797 ft 288 kts 157°
2026-05-07 07:08 47.39069 -1.77996 9293 ft 285 kts 157°
2026-05-07 07:08 47.37289 -1.76826 8798 ft 282 kts 157°
2026-05-07 07:08 47.35502 -1.75654 8296 ft 279 kts 157°
2026-05-07 07:08 47.33733 -1.74503 7794 ft 276 kts 157°
2026-05-07 07:09 47.32005 -1.73390 7447 ft 269 kts 157°
2026-05-07 07:09 47.30258 -1.72477 7234 ft 266 kts 169°
2026-05-07 07:09 47.28405 -1.72368 7060 ft 267 kts 184°
2026-05-07 07:09 47.26584 -1.72734 6869 ft 268 kts 189°
2026-05-07 07:10 47.24748 -1.73288 6668 ft 267 kts 192°
2026-05-07 07:10 47.22937 -1.73900 6468 ft 267 kts 193°
2026-05-07 07:10 47.21132 -1.74533 6268 ft 266 kts 193°
2026-05-07 07:10 47.19351 -1.75167 6086 ft 255 kts 193°
2026-05-07 07:11 47.17694 -1.75763 5902 ft 240 kts 193°
2026-05-07 07:11 47.16117 -1.76335 5715 ft 227 kts 193°
2026-05-07 07:11 47.14608 -1.76886 5530 ft 219 kts 193°
2026-05-07 07:11 47.13146 -1.77422 5355 ft 218 kts 193°
2026-05-07 07:12 47.11661 -1.77968 5166 ft 220 kts 193°
2026-05-07 07:12 47.10192 -1.78509 4969 ft 220 kts 193°
2026-05-07 07:12 47.08691 -1.79063 4767 ft 220 kts 193°
2026-05-07 07:12 47.07224 -1.79602 4570 ft 220 kts 193°
2026-05-07 07:13 47.05733 -1.80148 4369 ft 220 kts 193°
2026-05-07 07:13 47.04248 -1.80693 4169 ft 220 kts 193°
2026-05-07 07:13 47.02761 -1.81238 3968 ft 219 kts 193°
2026-05-07 07:13 47.01274 -1.81785 3766 ft 219 kts 193°
2026-05-07 07:14 46.99786 -1.82065 3555 ft 218 kts 177°
2026-05-07 07:14 46.98336 -1.81484 3350 ft 217 kts 152°
2026-05-07 07:14 46.97226 -1.80013 3181 ft 216 kts 126°
2026-05-07 07:14 46.96718 -1.77995 3052 ft 215 kts 96°
2026-05-07 07:15 46.96998 -1.75882 3019 ft 208 kts 65°
2026-05-07 07:15 46.97915 -1.74335 3035 ft 199 kts 40°
2026-05-07 07:15 46.99077 -1.73231 2952 ft 199 kts 30°
2026-05-07 07:15 47.00292 -1.72322 2779 ft 196 kts 27°
2026-05-07 07:16 47.01510 -1.71473 2598 ft 191 kts 26°
2026-05-07 07:16 47.02681 -1.70649 2411 ft 181 kts 27°
2026-05-07 07:16 47.03783 -1.69848 2222 ft 173 kts 28°
2026-05-07 07:16 47.04826 -1.69064 2016 ft 168 kts 29°
2026-05-07 07:17 47.05846 -1.68284 1838 ft 161 kts 29°
2026-05-07 07:17 47.06823 -1.67543 1653 ft 152 kts 29°
2026-05-07 07:17 47.07728 -1.66856 1479 ft 142 kts 29°
2026-05-07 07:17 47.08585 -1.66205 1313 ft 138 kts 30°
2026-05-07 07:18 47.09443 -1.65551 1137 ft 139 kts 30°
2026-05-07 07:18 47.10303 -1.64895 964 ft 140 kts 30°
2026-05-07 07:18 47.11167 -1.64235 793 ft 140 kts 29°
2026-05-07 07:18 47.12026 -1.63580 606 ft 141 kts 28°
2026-05-07 07:19 47.12894 -1.62919 409 ft 141 kts 27°
2026-05-07 07:19 47.13763 -1.62257 229 ft 139 kts 27°
2026-05-07 07:19 47.14608 -1.61615 99 ft 130 kts 27°
2026-05-07 07:19 47.15221 -1.61147 99 ft 68 kts 27°
2026-05-07 07:20 47.15532 -1.60911 99 ft 42 kts 27°
2026-05-07 07:20 47.15748 -1.60746 99 ft 21 kts 27°
2026-05-07 07:20 47.15833 -1.60654 99 ft 11 kts 65°
2026-05-07 07:20 47.15827 -1.60563 99 ft 7 kts 121°
2026-05-07 07:21 47.15803 -1.60513 99 ft 5 kts 125°
2026-05-07 07:21 47.15799 -1.60466 99 ft 6 kts 77°
2026-05-07 07:21 47.15826 -1.60418 99 ft 7 kts 27°
2026-05-07 07:21 47.15877 -1.60380 99 ft 10 kts 27°
2026-05-07 07:22 47.15941 -1.60329 99 ft 8 kts 45°
2026-05-07 07:22 47.15933 -1.60283 99 ft 5 kts 129°
2026-05-07 07:22 47.15910 -1.60266 99 ft 3 kts 160°
2026-05-07 07:22 47.15901 -1.60261 99 ft 0 kts 160°